User: anonymous
Location: Unspecified
(0.0000°N, 0.0000°E)
Time: 18:05:07
(UTC+00:00)
Language:

ETS 8 - Orbit

View from above orbital plane
View from above orbital plane
View from above satellite
View from above satellite

Ground track
Ground track

The orbit data is extracted from the following two-line orbital elements,

1 29656U 06059A   14202.54510207 -.00000260  00000-0  00000+0 0  4444
2 29656 003.5875 066.4345 0006479 048.9978 165.7076 01.00274304 27852
Epoch (UTC): 21 July 2014 13:04:56
Eccentricity: 0.0006479
inclination: 3.5875°
perigee height: 35758 km
apogee height: 35813 km
right ascension of ascending node: 66.4345°
argument of perigee: 48.9978°
revolutions per day: 1.00274304
mean anomaly at epoch: 165.7076°
orbit number at epoch: 2785

The dashed part of the orbit path shows where the satellite is in the earth's shadow,  

DLR